Location: Gudip?du
(17.0263°N, 80.8301°E)
Time: 15:45:39
(UTC+00:00)

BREEZE-M TANK - Pass Details

Date: 03 August 2024
Orbit: 596 x 24684 km, 45.3° (Epoch: 12 September)

Event Time Altitude Azimuth Distance (km) Brightness Sun altitude
Exits shadow 22:21:03 45° 340° (NNW) 922 3.4 -26.3°
Drops below altitude 10° 22:26:08 10° 37° (NE) 3,097 7.0 -25.3°
Sets 22:30:44 0° 43° (NE) 5,307 8.5 -24.3°
